x

Little Traverse Bay, Mi (45022) Wave Buoy

1:50pm - Tue 26th Sep 2017 All times are CDT. -5 hours from GMT.

  • Sig Wave height 0.7ft
  • Swell Direction
  • Wind
    9mph, 11mph gusts
  • Sea Temp 69°f
  • Air Temp 72°f
  • Sea Pressure 1013.5mb
  • Little Traverse Bay, Mi
  • Little Traverse Bay, Mi

More Historic Weather Station data

Upgrade to MSW Pro to gain access to the past 30 days of data for over 8000 Wavebouys and Weather Stations around the globe.

Join

Comparision Forecast

View Surf forecast
   
Tue 09/26 1:50pm 0.7ft  -  9 11 mph 1013.5mb 69f 72f
1:40pm 0.7ft  -  7 9 mph 1013.4mb 69f 72f
1:30pm 0.7ft  -  11 13 mph 1013.3mb 69f 71f
1:20pm 0.7ft  -  7 13 mph 1013.4mb 69f 74f
1:10pm 0.7ft  -  9 16 mph 1013.5mb 69f 74f
1:00pm 0.7ft  -  11 16 mph 1013.6mb 69f 80f
12:50pm 1ft  -  9 16 mph 1013.5mb 69f 80f
12:40pm 0.7ft  -  13 16 mph 1013.5mb 69f 80f
12:30pm 0.7ft  -  9 11 mph 1013.6mb 69f 80f
12:20pm 0.7ft  -  9 13 mph 1013.6mb 69f 79f
12:10pm 1ft  -  9 13 mph 1013.7mb 69f 78f
12:00pm 1ft  -  11 13 mph 1013.7mb 69f 78f
11:50am 1ft  -  9 13 mph 1013.8mb 69f 78f
11:40am 1ft  -  9 13 mph 1013.9mb 69f 78f
11:30am 1ft  -  11 13 mph 1013.9mb 69f 78f
11:20am 1ft  -  11 16 mph 1014mb 69f 77f
11:10am 0.7ft  -  9 13 mph 1014.2mb 69f 77f
11:00am 0.3ft  -  7 11 mph 1014.4mb 69f 77f
10:50am 0.3ft  -  4 9 mph 1014.6mb 69f 76f
10:40am 0.3ft  -  4 7 mph 1014.7mb 69f 73f
10:30am 0.3ft  -  4 7 mph 1014.7mb 69f 72f
10:20am 0.3ft  -  7 7 mph 1014.7mb 69f 71f
10:10am 0.3ft  -  7 9 mph 1014.7mb 69f 70f
10:00am 0.7ft  -  7 9 mph 1014.8mb 69f 70f
9:50am 0.7ft  -  7 9 mph 1014.9mb 68f 69f
9:40am 0.7ft  -  7 9 mph 1015mb 68f 69f
9:30am 0.7ft  -  7 9 mph 1015mb 68f 68f
9:20am 0.7ft  -  9 11 mph 1015mb 68f 68f
9:10am 0.7ft  -  7 9 mph 1015.1mb 68f 68f
9:00am 0.7ft  -  7 9 mph 1015.2mb 68f 68f
8:50am 0.7ft  -  9 9 mph 1015.1mb 68f 67f
8:40am 0.7ft  -  9 9 mph 1015.2mb 68f 67f
8:30am 0.7ft  -  9 11 mph 1015.2mb 68f 67f
8:20am 0.7ft  -  9 11 mph 1015.2mb 68f 67f
8:10am 0.7ft  -  9 11 mph 1015.2mb 68f 66f
8:00am 0.7ft  -  9 11 mph 1015.3mb 68f 66f
7:50am 0.7ft  -  9 9 mph 1015.3mb 68f 66f
7:40am 0.7ft  -  9 11 mph 1015.3mb 68f 66f
7:30am 0.7ft  -  9 11 mph 1015.2mb 68f 66f
7:20am 0.7ft  -  9 11 mph 1015.2mb 68f 66f
7:10am 0.7ft  -  9 11 mph 1015.2mb 68f 66f
7:00am 0.7ft  -  9 11 mph 1015.2mb 68f 66f
6:50am 0.7ft  -  9 11 mph 1015.2mb 68f 66f
6:40am 0.7ft  -  9 11 mph 1015.2mb 68f 65f
6:30am 0.3ft  -  9 11 mph 1015mb 68f 66f
6:20am 0.7ft  -  9 9 mph 1015.1mb 68f 66f
6:10am 0.7ft  -  9 9 mph 1015mb 68f 66f
6:00am 0.3ft  -  9 9 mph 1015mb 68f 66f
5:50am 0.3ft  -  7 9 mph 1015mb 68f 66f
5:40am 0.3ft  -  7 9 mph 1015mb 68f 66f
5:30am 0.3ft  -  7 9 mph 1015.1mb 68f 66f
5:20am 0.3ft  -  9 9 mph 1015mb 68f 66f
5:10am 0.3ft  -  9 9 mph 1015.1mb 68f 66f
5:00am 0.3ft  -  7 9 mph 1015.2mb 68f 66f
4:50am 0.3ft  -  7 9 mph 1015.3mb 68f 67f
4:40am 0.3ft  -  7 7 mph 1015.5mb 68f 67f
4:30am 0.3ft  -  4 7 mph 1015.5mb 68f 67f
4:20am 0.3ft  -  4 4 mph 1015.5mb 68f 67f
4:10am 0.3ft  -  4 7 mph 1015.5mb 68f 67f
4:00am 0.3ft  -  4 7 mph 1015.5mb 68f 67f
3:50am 0.3ft  -  4 7 mph 1015.5mb 68f 67f
3:40am 0.3ft  -  4 4 mph 1015.5mb 68f 67f
3:30am 0.3ft  -  4 4 mph 1015.5mb 68f 67f
3:20am 0.3ft  -  4 7 mph 1015.5mb 68f 67f
3:10am 0.3ft  -  7 7 mph 1015.5mb 68f 67f
3:00am 0.3ft  -  4 7 mph 1015.5mb 68f 67f
2:50am 0.3ft  -  4 4 mph 1015.5mb 68f 67f
2:40am 0.3ft  -  2 4 mph 1015.5mb 68f 67f
2:30am 0.3ft  -  4 4 mph 1015.5mb 68f 67f
2:20am 0.3ft  -  2 4 mph 1015.6mb 68f 68f
2:10am 0.3ft  -  4 4 mph 1015.6mb 69f 68f
2:00am 0.3ft  -  2 4 mph 1015.6mb 69f 68f
1:50am 0.3ft  -  2 4 mph 1015.7mb 69f 68f
1:40am 0.3ft  -  4 4 mph 1015.7mb 69f 68f
1:30am 0.3ft  -  2 4 mph 1015.6mb 69f 68f
1:20am 0.3ft  -  2 4 mph 1015.7mb 69f 68f
1:10am 0.3ft  -  2 4 mph 1015.7mb 69f 68f
1:00am 0.3ft  -  2 4 mph 1015.7mb 69f 68f
12:50am 0.3ft  -  2 2 mph 1015.7mb 69f 68f
12:40am 0.3ft  -  2 2 mph 1015.7mb 69f 68f
12:30am 0.3ft  -  2 2 mph 1015.6mb 69f 68f
12:20am 0.3ft  -  2 2 mph 1015.6mb 69f 69f
12:10am 0.3ft  -  2 2 mph 1015.7mb 69f 68f
12:00am 0.3ft  -  2 4 mph 1015.7mb 69f 68f
Mon 09/25 11:50pm 0.3ft  -  2 4 mph 1015.7mb 69f 68f
11:40pm 0.3ft  -  2 4 mph 1015.7mb 69f 69f
11:30pm 0.3ft  -   -  2 mph 1015.5mb 69f 69f
11:20pm 0.3ft  -  2 4 mph 1015.5mb 69f 69f
11:10pm 0.3ft  -  4 7 mph 1015.5mb 69f 69f
11:00pm 0.3ft  -  7 9 mph 1015.5mb 69f 69f
10:50pm 0.3ft  -  4 4 mph 1015.5mb 69f 69f
10:40pm 0.3ft  -  4 4 mph 1015.5mb 69f 69f
10:30pm 0.3ft  -  4 4 mph 1015.5mb 69f 69f
10:20pm 0.3ft  -  4 4 mph 1015.5mb 69f 69f
10:10pm 0.3ft  -  2 4 mph 1015.4mb 69f 69f
10:00pm 0.3ft  -  2 4 mph 1015.3mb 69f 70f
9:50pm 0.3ft  -  2 4 mph 1015.3mb 69f 70f
9:40pm 0.3ft  -  2 2 mph 1015.3mb 69f 70f
9:30pm 0.3ft  -  2 4 mph 1015.4mb 69f 70f
9:20pm 0.3ft  -  4 7 mph 1015.3mb 69f 71f
9:10pm 0.3ft  -  4 4 mph 1015.2mb 69f 72f
9:00pm 0.3ft  -  4 4 mph 1015.2mb 70f 72f
8:50pm 0.3ft  -  4 7 mph 1015.3mb 70f 71f
8:40pm 0.3ft  -  4 7 mph 1015.4mb 70f 71f
8:30pm 0.3ft  -  4 4 mph 1015.3mb 70f 71f
8:20pm 0.3ft  -  4 7 mph 1015.2mb 70f 71f
8:10pm 0.3ft  -  7 7 mph 1015.2mb 70f 71f
8:00pm 0.3ft  -  7 9 mph 1015.3mb 70f 72f
7:50pm 0.3ft  -  7 9 mph 1015.5mb 70f 72f
7:40pm 0.3ft  -  4 7 mph 1015.5mb 70f 73f
7:30pm 0.3ft  -  4 7 mph 1015.5mb 70f 73f
7:20pm 0.3ft  -  4 7 mph 1015.5mb 70f 72f
7:10pm 0.3ft  -  2 2 mph 1015.3mb 70f 72f
7:00pm 0.3ft  -  2 7 mph 1015.2mb 70f 72f
6:50pm 0.3ft  -  2 2 mph 1015mb 70f 72f
6:40pm 0.3ft  -  4 4 mph 1015mb 70f 73f
6:30pm 0.3ft  -  4 4 mph 1015.1mb 70f 73f
6:20pm 0.3ft  -  2 4 mph 1015.1mb 70f 74f
6:10pm 0.3ft  -  2 4 mph 1015.1mb 70f 75f
6:00pm 0.3ft  -  2 2 mph 1015.3mb 70f 76f
5:50pm 0.3ft  -  2 2 mph 1015.4mb 70f 76f
5:40pm 0.3ft  -   -  2 mph 1015.4mb 70f 77f
5:30pm 0.3ft  -  2 4 mph 1015.4mb 70f 77f
5:20pm 0.3ft  -  4 4 mph 1015.4mb 70f 77f
5:10pm 0.3ft  -  4 4 mph 1015.4mb 70f 76f
5:00pm 0.3ft  -  4 4 mph 1015.4mb 70f 75f
4:50pm 0.3ft  -  4 4 mph 1015.5mb 70f 74f
4:40pm 0.3ft  -  4 4 mph 1015.6mb 70f 74f
4:30pm 0.3ft  -  4 4 mph 1015.6mb 70f 74f
4:20pm 0.3ft  -  4 4 mph 1015.7mb 70f 75f
4:10pm 0.7ft  -  4 7 mph 1015.8mb 70f 75f
4:00pm 0.3ft  -  4 7 mph 1015.9mb 70f 75f
3:50pm 0.3ft  -  2 4 mph 1015.9mb 70f 76f
3:40pm 0.3ft  -  2 2 mph 1015.9mb 71f 76f
3:30pm 0.3ft  -  2 4 mph 1015.9mb 71f 76f
3:20pm 0.3ft  -  4 4 mph 1016mb 71f 76f
3:10pm 0.3ft  -  4 4 mph 1016.1mb 71f 77f
3:00pm 0.3ft  -  4 4 mph 1016.3mb 70f 77f
2:50pm 0.3ft  -  2 4 mph 1016.3mb 70f 76f
2:40pm 0.3ft  -  2 4 mph 1016.3mb 69f 76f
2:30pm 0.3ft  -  4 4 mph 1016.5mb 69f 76f
2:20pm 0.3ft  -  4 7 mph 1016.6mb 69f 76f
2:10pm 0.3ft  -  4 7 mph 1016.7mb 69f 76f
2:00pm 0.3ft  -  4 4 mph 1016.7mb 69f 76f
1:50pm 0.3ft  -  4 7 mph 1016.8mb 69f 76f
1:40pm 0.3ft  -  2 4 mph 1016.8mb 69f 76f
1:30pm 0.3ft  -  4 7 mph 1016.8mb 69f 76f
1:20pm 0.3ft  -  4 7 mph 1016.9mb 69f 75f
1:10pm 0.3ft  -  4 4 mph 1016.9mb 69f 76f
1:00pm 0.3ft  -  4 7 mph 1017mb 69f 75f
12:50pm 0.3ft  -  4 7 mph 1017.2mb 69f 74f
12:40pm 0.3ft  -  4 7 mph 1017.3mb 69f 73f
12:30pm 0.3ft  -  4 7 mph 1017.3mb 69f 73f
12:20pm 0.3ft  -  4 4 mph 1017.3mb 69f 73f
12:10pm 0.3ft  -  4 7 mph 1017.3mb 69f 74f
12:00pm 0.3ft  -  4 7 mph 1017.4mb 69f 75f
11:50am 0.3ft  -  4 4 mph 1017.5mb 69f 76f
11:40am 0.3ft  -  4 4 mph 1017.6mb 69f 76f
11:30am 0.7ft  -  2 4 mph 1017.7mb 69f 78f
11:20am 0.7ft  -  2 4 mph 1017.7mb 68f 77f
11:10am 0.7ft  -  2 4 mph 1017.8mb 68f 77f
11:00am 0.7ft  -  4 7 mph 1017.8mb 68f 75f
10:50am 0.7ft  -  4 7 mph 1017.8mb 68f 76f
10:40am 0.7ft  -  4 7 mph 1017.8mb 68f 75f
10:30am 0.7ft  -  4 7 mph 1017.8mb 68f 76f
10:20am 0.7ft  -  4 7 mph 1018mb 68f 76f
10:10am 0.7ft  -  4 7 mph 1018mb 68f 75f
10:00am 0.7ft  -  2 7 mph 1018.1mb 68f 75f
9:50am 0.7ft  -  2 7 mph 1018.2mb 68f 75f
9:40am 0.7ft  -  4 7 mph 1018.2mb 68f 74f
9:30am 0.7ft  -  4 7 mph 1018.2mb 68f 74f
9:20am 0.7ft  -  2 4 mph 1018.2mb 68f 73f
9:10am 0.7ft  -  2 7 mph 1018.2mb 68f 72f
9:00am 0.7ft  -  4 4 mph 1018.2mb 68f 71f
8:50am 1ft  -  4 11 mph 1018mb 68f 71f
8:40am 1ft  -  9 11 mph 1017.9mb 68f 71f
8:30am 1ft  -  9 13 mph 1017.9mb 68f 71f
8:20am 1ft  -  11 13 mph 1017.9mb 68f 71f
8:10am 1ft  -  11 13 mph 1017.8mb 68f 71f
8:00am 1ft  -  11 13 mph 1017.7mb 68f 70f
7:50am 1ft  -  11 13 mph 1017.7mb 68f 70f
7:40am 1ft  -  11 13 mph 1017.7mb 68f 70f
7:30am 1ft  -  11 16 mph 1017.7mb 68f 70f
7:20am 1ft  -  11 13 mph 1017.6mb 68f 70f
7:10am 1ft  -  11 16 mph 1017.6mb 69f 70f
7:00am 1ft  -  11 16 mph 1017.6mb 69f 70f
6:50am 1ft  -  11 13 mph 1017.6mb 69f 70f
6:40am 0.7ft  -  11 13 mph 1017.4mb 69f 70f
6:30am 0.7ft  -  9 11 mph 1017.4mb 69f 70f
6:20am 0.7ft  -  9 11 mph 1017.4mb 69f 70f
6:10am 0.7ft  -  9 11 mph 1017.4mb 69f 70f
6:00am 0.7ft  -  7 9 mph 1017.4mb 69f 70f
5:50am 0.7ft  -  4 7 mph 1017.3mb 69f 70f
5:40am 0.7ft  -  4 7 mph 1017.2mb 69f 70f
5:30am 0.7ft  -  4 7 mph 1017.2mb 69f 70f
5:20am 0.7ft  -  4 7 mph 1017.1mb 69f 70f
5:10am 0.7ft  -  4 7 mph 1017.1mb 69f 69f
5:00am 0.7ft  -  2 4 mph 1017.1mb 69f 69f
4:50am 0.7ft  -  2 4 mph 1017.3mb 69f 69f
4:40am 0.7ft  -  2 4 mph 1017.2mb 69f 69f
4:30am 0.7ft  -  4 7 mph 1017.1mb 69f 69f
4:20am 0.7ft  -  7 9 mph 1017.1mb 69f 69f
4:10am 0.3ft  -  7 9 mph 1017.1mb 69f 69f
4:00am 0.3ft  -  9 9 mph 1017.1mb 69f 69f
3:50am 0.3ft  -  7 9 mph 1017.1mb 69f 70f
3:40am 0.3ft  -  7 9 mph 1017.1mb 69f 70f
3:30am 0.3ft  -  7 9 mph 1017.1mb 69f 70f
3:20am 0.3ft  -  7 9 mph 1017.1mb 69f 70f
3:10am 0.3ft  -  7 9 mph 1017.1mb 70f 70f
3:00am 0.3ft  -  7 9 mph 1017.1mb 70f 70f
2:50am 0.3ft  -  7 9 mph 1017.1mb 70f 70f
2:40am 0.3ft  -  7 9 mph 1017.1mb 70f 69f
2:30am 0.3ft  -  7 9 mph 1017.1mb 70f 69f
2:20am 0.3ft  -  7 9 mph 1017.1mb 70f 69f
2:10am 0.3ft  -  7 9 mph 1017.3mb 70f 69f
2:00am 0.3ft  -  7 9 mph 1017.4mb 70f 70f
1:50am 0.7ft  -  9 9 mph 1017.3mb 70f 71f
1:40am 0.3ft  -  9 11 mph 1017.4mb 70f 69f
1:30am 0.3ft  -  9 11 mph 1017.4mb 70f 69f
1:20am 0.7ft  -  9 9 mph 1017.6mb 70f 69f
1:10am 0.3ft  -  9 9 mph 1017.6mb 70f 70f
1:00am 0.3ft  -  9 11 mph 1017.6mb 70f 70f
12:50am 0.3ft  -  7 9 mph 1017.6mb 71f 70f
12:40am 0.3ft  -  7 9 mph 1017.6mb 71f 70f
12:30am 0.3ft  -  9 9 mph 1017.6mb 71f 69f
12:20am 0.3ft  -  9 9 mph 1017.7mb 70f 69f
12:10am 0.3ft  -  7 9 mph 1017.8mb 70f 69f
12:00am 0.3ft  -  7 9 mph 1017.8mb 71f 69f
Sun 09/24 11:50pm 0.3ft  -  7 7 mph 1017.9mb 71f 70f
11:40pm 0.3ft  -  4 7 mph 1018mb 70f 70f
11:30pm 0.3ft  -  4 7 mph 1018mb 70f 70f
11:20pm 0.3ft  -  7 7 mph 1018.1mb 70f 70f
11:10pm 0.3ft  -  7 9 mph 1018.1mb 70f 70f
11:00pm 0.3ft  -  7 9 mph 1018.2mb 70f 70f
10:50pm 0.3ft  -  4 7 mph 1018.2mb 70f 70f
10:40pm 0.3ft  -  4 7 mph 1018.3mb 70f 70f
10:30pm 0.3ft  -  4 7 mph 1018.3mb 70f 70f
10:20pm 0.3ft  -  2 4 mph 1018.3mb 70f 71f
10:10pm 0.3ft  -  4 4 mph 1018.3mb 70f 71f
10:00pm 0.3ft  -  2 4 mph 1018.4mb 70f 71f
9:50pm 0.3ft  -  2 4 mph 1018.4mb 70f 71f
9:40pm 0.3ft  -  4 4 mph 1018.5mb 70f 72f
9:30pm 0.3ft  -  2 4 mph 1018.5mb 71f 73f
9:20pm 0.3ft  -  2 4 mph 1018.5mb 70f 73f
9:10pm 0.3ft  -  2 2 mph 1018.4mb 70f 73f
9:00pm 0.3ft  -   -  2 mph 1018.4mb 70f 73f
8:50pm 0.3ft  -  2 4 mph 1018.4mb 70f 74f
8:40pm 0.3ft  -  4 4 mph 1018.4mb 70f 74f
8:30pm 0.3ft  -  2 4 mph 1018.4mb 70f 74f
8:20pm 0.3ft  -  2 4 mph 1018.4mb 70f 75f
8:10pm 0.3ft  -  7 7 mph 1018.5mb 70f 76f
8:00pm 0.3ft  -  7 7 mph 1018.4mb 70f 75f
7:50pm 0.3ft  -  7 9 mph 1018.4mb 69f 74f
7:40pm 0.3ft  -  7 7 mph 1018.4mb 69f 74f
7:30pm 0.3ft  -  4 7 mph 1018.4mb 69f 75f
7:20pm 0.3ft  -  7 11 mph 1018.2mb 69f 73f
7:10pm 0.3ft  -  4 11 mph 1018.1mb 69f 73f
7:00pm 0.3ft  -  2 2 mph 1018.1mb 69f 73f
6:50pm 0.3ft  -  2 4 mph 1017.9mb 69f 73f
6:40pm 0.3ft  -  4 4 mph 1017.9mb 69f 73f
6:30pm 0.3ft  -  4 4 mph 1017.9mb 69f 74f
6:20pm 0.3ft  -  2 2 mph 1017.9mb 69f 73f
6:10pm 0.3ft  -  2 2 mph 1018mb 69f 74f
6:00pm 0.3ft  -  2 4 mph 1018mb 69f 75f
5:50pm 0.3ft  -  4 4 mph 1018mb 69f 75f
5:40pm 0.3ft  -  2 4 mph 1018.1mb 69f 75f
5:30pm 0.3ft  -  2 4 mph 1018mb 69f 76f
5:20pm 0.3ft  -  2 4 mph 1018mb 69f 76f
5:10pm 0.3ft  -  4 4 mph 1018mb 69f 76f
5:00pm 0.3ft  -  2 4 mph 1018mb 69f 76f
4:50pm 0.3ft  -  2 2 mph 1018mb 69f 75f
4:40pm 0.3ft  -  2 2 mph 1018mb 69f 75f
4:30pm 0.3ft  -  4 4 mph 1018mb 70f 75f
4:20pm 0.3ft  -  4 4 mph 1018.1mb 70f 75f
4:10pm 0.3ft  -  4 4 mph 1018.2mb 71f 75f
4:00pm 0.3ft  -  4 7 mph 1018.3mb 71f 75f
3:50pm 0.3ft  -  4 7 mph 1018.4mb 71f 75f
3:40pm 0.3ft  -  4 7 mph 1018.5mb 71f 75f
3:30pm 0.7ft  -  7 9 mph 1018.5mb 70f 76f
3:20pm 0.3ft  -  7 9 mph 1018.7mb 69f 76f
3:10pm 0.3ft  -  7 7 mph 1018.9mb 69f 76f
3:00pm 0.3ft  -  7 7 mph 1019mb 69f 76f
2:50pm 0.3ft  -  7 7 mph 1019.1mb 69f 76f
2:40pm 0.3ft  -  4 7 mph 1019.3mb 69f 76f
2:30pm 0.7ft  -  4 7 mph 1019.3mb 69f 76f
2:20pm 0.7ft  -  4 7 mph 1019.3mb 70f 76f
2:10pm 0.7ft  -  4 4 mph 1019.5mb 70f 76f
2:00pm 0.7ft  -  4 7 mph 1019.5mb 70f 76f
1:50pm 0.3ft  -  4 7 mph 1019.6mb 70f 76f
1:40pm 0.3ft  -  4 4 mph 1019.7mb 70f 76f
1:30pm 0.3ft  -  4 7 mph 1019.7mb 70f 77f
1:20pm 0.3ft  -  4 4 mph 1019.7mb 70f 77f
1:10pm 0.3ft  -  4 4 mph 1019.7mb 69f 77f
1:00pm 0.3ft  -  2 4 mph 1019.8mb 69f 77f
12:50pm 0.3ft  -  4 4 mph 1019.9mb 70f 77f
12:40pm 0.3ft  -  4 4 mph 1020.1mb 70f 76f
12:30pm 0.3ft  -  4 4 mph 1020.1mb 70f 76f
12:20pm 0.3ft  -  4 4 mph 1020.3mb 69f 75f
12:10pm 0.3ft  -  4 4 mph 1020.3mb 69f 75f
12:00pm 0.3ft  -  4 7 mph 1020.3mb 69f 75f
11:50am 0.3ft  -  4 7 mph 1020.3mb 69f 74f
11:40am 0.3ft  -  4 7 mph 1020.4mb 69f 74f
11:30am 0.3ft  -  4 4 mph 1020.5mb 69f 74f
11:20am 0.3ft  -  4 7 mph 1020.6mb 69f 74f
11:10am 0.3ft  -  4 4 mph 1020.5mb 69f 73f
11:00am 0.3ft  -  4 7 mph 1020.5mb 69f 73f
10:50am 0.3ft  -  4 4 mph 1020.6mb 69f 73f
10:40am 0.3ft  -  4 4 mph 1020.8mb 69f 73f
10:30am 0.3ft  -  4 4 mph 1020.9mb 69f 73f
10:20am 0.3ft  -  4 4 mph 1020.9mb 69f 73f
10:10am 0.3ft  -  4 7 mph 1020.9mb 69f 72f
10:00am 0.3ft  -  4 7 mph 1020.9mb 69f 71f
9:50am 0.3ft  -  4 7 mph 1020.9mb 68f 72f
9:40am 0.3ft  -  7 7 mph 1020.9mb 68f 71f
9:30am 0.3ft  -  4 7 mph 1020.9mb 68f 72f
9:20am 0.3ft  -  4 7 mph 1021mb 68f 71f
9:10am 0.3ft  -  4 7 mph 1021mb 68f 71f
9:00am 0.3ft  -  4 7 mph 1021mb 68f 71f
8:50am 0.3ft  -  4 7 mph 1021mb 68f 71f
8:40am 0.3ft  -  4 7 mph 1020.9mb 68f 71f
8:30am 0.3ft  -  4 7 mph 1020.9mb 68f 71f
8:20am 0.3ft  -  4 4 mph 1020.9mb 68f 71f
8:10am 0.3ft  -  4 7 mph 1020.9mb 68f 71f
8:00am 0.3ft  -  4 7 mph 1020.9mb 68f 71f
7:50am 0.3ft  -  4 7 mph 1020.9mb 68f 71f
7:40am 0.3ft  -  4 7 mph 1020.9mb 68f 70f
7:30am 0.3ft  -  4 7 mph 1020.8mb 68f 70f
7:20am 0.3ft  -  4 7 mph 1020.8mb 68f 70f
7:10am 0.3ft  -  7 7 mph 1020.8mb 68f 70f
7:00am 0.3ft  -  4 7 mph 1020.8mb 68f 70f
6:50am 0.3ft  -  7 7 mph 1020.7mb 68f 69f
6:40am 0.3ft  -  7 7 mph 1020.6mb 68f 69f
6:30am 0.3ft  -  7 7 mph 1020.6mb 68f 69f
6:20am 0.3ft  -  4 7 mph 1020.7mb 68f 69f
6:10am 0.3ft  -  7 7 mph 1020.6mb 68f 69f
6:00am 0.3ft  -  4 7 mph 1020.7mb 68f 69f
5:50am 0.3ft  -  7 7 mph 1020.7mb 68f 69f
5:40am 0.3ft  -  4 7 mph 1020.8mb 68f 70f
5:30am 0.3ft  -  4 7 mph 1020.8mb 68f 70f
5:20am 0.3ft  -  7 7 mph 1020.7mb 68f 70f
5:10am 0.3ft  -  7 7 mph 1020.6mb 68f 69f
5:00am 0.3ft  -  7 7 mph 1020.5mb 68f 69f
4:50am 0.3ft  -  7 9 mph 1020.4mb 68f 69f
4:40am 0.3ft  -  7 9 mph 1020.4mb 68f 69f
4:30am 0.3ft  -  4 7 mph 1020.4mb 68f 69f
4:20am 0.3ft  -  7 7 mph 1020.3mb 68f 69f
4:10am 0.3ft  -  4 7 mph 1020.3mb 68f 69f
4:00am 0.3ft  -  7 7 mph 1020.2mb 68f 69f
3:50am 0.3ft  -  7 7 mph 1020.2mb 68f 70f
3:40am 0.7ft  -  7 7 mph 1020.2mb 68f 70f
3:30am 0.7ft  -  7 7 mph 1020.2mb 68f 69f
3:20am 0.7ft  -  7 7 mph 1020.2mb 68f 69f
3:10am 0.7ft  -  7 7 mph 1020.1mb 68f 69f
3:00am 0.7ft  -  7 7 mph 1020.1mb 68f 69f
2:50am 0.7ft  -  7 7 mph 1020.1mb 68f 70f
2:40am 0.7ft  -  7 7 mph 1020.1mb 68f 70f
2:30am 0.7ft  -  7 7 mph 1020.1mb 68f 70f
2:20am 0.7ft  -  7 7 mph 1020mb 68f 70f
2:10am 0.7ft  -  7 9 mph 1020mb 68f 70f
2:00am 0.7ft  -  7 9 mph 1020mb 68f 69f
1:50am 0.7ft  -  7 7 mph 1019.9mb 68f 69f
1:40am 0.7ft  -  7 7 mph 1019.9mb 68f 69f
1:30am 0.7ft  -  7 7 mph 1019.8mb 68f 69f
1:20am 0.7ft  -  7 7 mph 1019.8mb 68f 69f
1:10am 0.7ft  -  4 7 mph 1019.8mb 68f 69f
1:00am 0.7ft  -  4 7 mph 1019.8mb 68f 69f
12:50am 0.7ft  -  7 9 mph 1019.8mb 68f 70f
12:40am 0.7ft  -  7 7 mph 1019.6mb 68f 69f
12:30am 0.7ft  -  4 7 mph 1019.6mb 68f 69f
12:20am 0.7ft  -  4 7 mph 1019.6mb 68f 69f
12:10am 0.7ft  -  7 9 mph 1019.6mb 68f 70f
12:00am 0.7ft  -  7 9 mph 1019.6mb 68f 69f
Sat 09/23 11:50pm 0.7ft  -  7 7 mph 1019.6mb 68f 69f
11:40pm 0.7ft  -  7 7 mph 1019.6mb 68f 69f
11:30pm 0.7ft  -  7 7 mph 1019.6mb 68f 69f
11:20pm 1ft 3s 7 7 mph 1019.5mb 68f 69f
11:10pm 1ft 3s 4 7 mph 1019.5mb 68f 69f
11:00pm 0.7ft  -  4 7 mph 1019.5mb 68f 69f
10:50pm 0.7ft  -  4 4 mph 1019.4mb 68f 69f
10:40pm 0.7ft  -  4 7 mph 1019.4mb 69f 69f
10:30pm 0.7ft  -  4 4 mph 1019.5mb 69f 69f
10:20pm 0.7ft  -  4 7 mph 1019.4mb 69f 69f
10:10pm 0.7ft  -  4 7 mph 1019.4mb 69f 70f
10:00pm 0.7ft  -  4 4 mph 1019.3mb 69f 70f
9:50pm 0.7ft  -  4 4 mph 1019.4mb 69f 70f
9:40pm 0.7ft  -  4 7 mph 1019.3mb 69f 70f
9:30pm 0.7ft  -  4 4 mph 1019.2mb 69f 71f
9:20pm 0.7ft  -  4 4 mph 1019.1mb 69f 71f
9:10pm 0.7ft  -  4 7 mph 1019.1mb 69f 71f
9:00pm 0.7ft  -  4 4 mph 1019mb 69f 70f
8:50pm 0.7ft  -  4 4 mph 1019mb 69f 70f
8:40pm 1ft 4s 4 7 mph 1019mb 69f 71f
8:30pm 1ft 3s 4 4 mph 1018.9mb 69f 70f
8:20pm 1ft 4s 4 7 mph 1018.9mb 69f 70f
8:10pm 1ft 4s 4 4 mph 1018.8mb 69f 70f
8:00pm 1ft 4s 2 4 mph 1018.8mb 69f 70f
7:50pm 1ft 3s 4 7 mph 1018.7mb 69f 70f
7:40pm 1ft 4s 4 7 mph 1018.7mb 69f 70f
7:30pm 1ft 4s 4 7 mph 1018.7mb 69f 70f
7:20pm 1ft 4s 4 7 mph 1018.7mb 69f 70f
7:10pm 1ft 4s 4 7 mph 1018.7mb 69f 69f
7:00pm 1ft 4s 4 4 mph 1018.5mb 69f 69f
6:50pm 1ft 4s 4 4 mph 1018.5mb 69f 70f
6:40pm 1ft 3s 2 4 mph 1018.5mb 69f 71f
6:30pm 1ft 2s 2 2 mph 1018.5mb 69f 72f
6:20pm 1ft 3s 2 7 mph 1018.5mb 69f 72f
6:10pm 1ft 3s 2 4 mph 1018.5mb 69f 71f
6:00pm 1ft 3s 2 2 mph 1018.6mb 69f 71f
5:50pm 1ft 4s 2 4 mph 1018.6mb 69f 72f
5:40pm 1ft 3s 4 7 mph 1018.6mb 69f 71f
5:30pm 1ft 3s 4 7 mph 1018.5mb 69f 71f
5:20pm 1ft 4s 7 7 mph 1018.5mb 69f 72f
5:10pm 1ft 3s 7 7 mph 1018.4mb 69f 72f
5:00pm 1ft 4s 7 9 mph 1018.4mb 69f 72f
4:50pm 1ft 3s 7 7 mph 1018.4mb 69f 71f
4:40pm 1ft 4s 4 7 mph 1018.4mb 69f 72f
4:30pm 1ft 4s 4 7 mph 1018.3mb 69f 72f
4:20pm 1ft 3s 4 7 mph 1018.3mb 69f 72f
4:10pm 1ft 4s 7 9 mph 1018.4mb 69f 72f
4:00pm 1ft 4s 7 9 mph 1018.4mb 69f 72f
3:50pm 1ft 3s 7 9 mph 1018.4mb 69f 72f
3:40pm 1ft 4s 4 7 mph 1018.4mb 69f 72f
3:30pm 1ft 4s 7 9 mph 1018.5mb 69f 72f
3:20pm 1ft 4s 7 9 mph 1018.8mb 69f 72f
3:10pm 1ft 3s 7 9 mph 1018.9mb 69f 73f
3:00pm 1ft 4s 7 9 mph 1018.9mb 69f 73f
2:50pm 1ft 3s 7 7 mph 1019.1mb 69f 73f
2:40pm 1ft 3s 7 7 mph 1019.2mb 68f 73f
2:30pm 1ft 4s 7 9 mph 1019.3mb 68f 73f
2:20pm 1.3ft 4s 7 9 mph 1019.3mb 68f 72f
2:10pm 1.3ft 3s 7 9 mph 1019.3mb 68f 72f
2:00pm 1.3ft 3s 7 9 mph 1019.4mb 68f 72f
1:50pm 1.3ft 4s 7 9 mph 1019.5mb 68f 72f
1:40pm 1.3ft 4s 9 11 mph 1019.5mb 68f 73f
1:30pm 1.3ft 4s 9 11 mph 1019.5mb 68f 73f
1:20pm 1.3ft 3s 9 11 mph 1019.5mb 68f 74f
1:10pm 1.3ft 3s 9 11 mph 1019.6mb 68f 74f
1:00pm 1.3ft 3s 9 11 mph 1019.6mb 68f 74f
12:50pm 1.3ft 3s 9 11 mph 1019.6mb 68f 75f
12:40pm 1.3ft 3s 9 11 mph 1019.7mb 68f 75f
12:30pm 1.3ft 3s 9 13 mph 1019.8mb 68f 75f
12:20pm 1.3ft 3s 9 11 mph 1019.9mb 68f 74f
12:10pm 1ft 2s 11 13 mph 1019.9mb 68f 75f
12:00pm 1.3ft 2s 11 13 mph 1019.9mb 68f 76f
11:50am 1ft 2s 11 13 mph 1019.9mb 68f 76f
11:40am 1.3ft 2s 11 13 mph 1019.8mb 68f 76f
11:30am 1ft  -  11 13 mph 1019.8mb 68f 77f
11:20am 1ft  -  9 13 mph 1019.8mb 68f 76f
11:10am 1ft 2s 9 13 mph 1019.8mb 68f 76f
11:00am 1ft  -  7 9 mph 1019.8mb 68f 75f
10:50am 1ft  -  7 9 mph 1019.7mb 68f 75f
10:40am 1ft 2s 9 9 mph 1019.6mb 68f 75f
10:30am 1ft 2s 9 11 mph 1019.5mb 68f 75f
10:20am 1ft 2s 9 11 mph 1019.5mb 68f 76f
10:10am 1ft  -  9 11 mph 1019.5mb 68f 76f
10:00am 1ft  -  9 16 mph 1019.5mb 68f 76f
9:50am 1ft 2s 11 16 mph 1019.6mb 68f 76f
9:40am 1ft  -  9 13 mph 1019.6mb 68f 75f
9:30am 1ft  -  7 11 mph 1019.6mb 68f 75f
9:20am 1ft 2s 9 11 mph 1019.6mb 67f 75f
9:10am 1ft  -  9 13 mph 1019.6mb 67f 74f
9:00am 1ft  -  9 11 mph 1019.5mb 67f 74f
8:50am 1ft  -  9 11 mph 1019.5mb 67f 73f
8:40am 1ft 2s 9 13 mph 1019.4mb 67f 73f
8:30am 1ft  -  9 13 mph 1019.3mb 67f 73f
8:20am 1ft  -  11 13 mph 1019.2mb 67f 73f
8:10am 1ft  -  11 16 mph 1019.2mb 67f 73f
8:00am 1.3ft 2s 11 16 mph 1019.2mb 67f 73f
7:50am 1.3ft 2s 11 22 mph 1019.1mb 67f 73f
7:40am 1ft 2s 11 13 mph 1019mb 67f 73f
7:30am 1ft  -  11 13 mph 1018.8mb 67f 73f
7:20am 1ft  -  9 13 mph 1018.7mb 67f 72f
7:10am 1ft 2s 4 9 mph 1018.7mb 67f 71f
7:00am 1ft  -  4 9 mph 1018.7mb 67f 71f
6:50am 1ft  -  9 11 mph 1018.5mb 67f 71f
6:40am 1ft  -  9 11 mph 1018.5mb 67f 71f
6:30am 0.7ft  -  9 11 mph 1018.4mb 67f 71f
6:20am 0.7ft  -  9 9 mph 1018.5mb 67f 71f
6:10am 0.7ft  -  9 9 mph 1018.5mb 67f 71f
6:00am 0.7ft  -  9 11 mph 1018.4mb 68f 71f
5:50am 0.7ft  -  9 11 mph 1018.3mb 68f 71f
5:40am 0.7ft  -  7 9 mph 1018.3mb 68f 71f
5:30am 0.7ft  -  9 11 mph 1018.2mb 68f 71f
5:20am 0.7ft  -  9 11 mph 1018.2mb 68f 70f
5:10am 0.7ft  -  9 11 mph 1018.1mb 68f 70f
5:00am 0.7ft  -  9 11 mph 1018.1mb 68f 70f
4:50am 0.7ft  -  7 11 mph 1018.1mb 68f 71f
4:40am 0.7ft  -  4 7 mph 1018.1mb 68f 71f
4:30am 0.7ft  -  4 7 mph 1018.2mb 68f 71f
4:20am 0.3ft  -  4 4 mph 1018.1mb 68f 71f
4:10am 0.3ft  -  2 4 mph 1018mb 68f 71f
4:00am 0.3ft  -  4 7 mph 1018mb 68f 72f
3:50am 0.3ft  -  4 7 mph 1018mb 68f 72f
3:40am 0.7ft  -  4 7 mph 1017.8mb 68f 72f
3:30am 0.3ft  -  2 9 mph 1017.9mb 68f 72f
3:20am 0.3ft  -  2 4 mph 1017.9mb 68f 72f
3:10am 0.3ft  -  4 4 mph 1017.7mb 68f 72f
3:00am 0.3ft  -  2 4 mph 1017.6mb 68f 72f
2:50am 0.3ft  -  2 4 mph 1017.5mb 68f 71f
2:40am 0.3ft  -  4 7 mph 1017.4mb 68f 69f
2:30am 0.3ft  -  4 7 mph 1017.3mb 68f 68f
2:20am 0.7ft  -  7 9 mph 1017.3mb 68f 68f
2:10am 0.7ft  -  7 9 mph 1017.4mb 68f 68f
2:00am 0.7ft  -  7 9 mph 1017.4mb 68f 68f
1:50am 0.7ft  -  7 7 mph 1017.6mb 68f 68f
1:40am 0.7ft  -  7 9 mph 1017.6mb 67f 68f
1:30am 0.7ft  -  7 9 mph 1017.7mb 67f 67f
1:20am 0.7ft  -  7 9 mph 1017.7mb 67f 67f
1:10am 0.7ft  -  7 9 mph 1017.8mb 67f 67f
1:00am 0.7ft  -  9 9 mph 1017.8mb 67f 68f
12:50am 0.7ft  -  9 11 mph 1017.7mb 67f 67f
12:40am 0.7ft  -  9 11 mph 1017.6mb 67f 68f
12:30am 0.7ft  -  9 11 mph 1017.7mb 67f 68f
12:20am 0.7ft  -  7 9 mph 1017.7mb 67f 68f
12:10am 0.7ft  -  9 11 mph 1017.7mb 67f 68f
12:00am 0.7ft  -  9 13 mph 1017.7mb 67f 68f
Fri 09/22 11:50pm 0.7ft  -  7 9 mph 1017.8mb 67f 68f
11:40pm 0.7ft  -  7 9 mph 1017.7mb 67f 69f
11:30pm 0.7ft  -  9 11 mph 1017.7mb 67f 69f
11:20pm 0.7ft  -  7 9 mph 1017.8mb 67f 68f
11:10pm 0.7ft  -  4 7 mph 1017.8mb 67f 68f
11:00pm 0.7ft  -  4 7 mph 1017.9mb 67f 69f
10:50pm 0.7ft  -  7 7 mph 1017.9mb 67f 68f
10:40pm 0.7ft  -  7 9 mph 1017.9mb 67f 69f
10:30pm 0.7ft  -  7 9 mph 1018mb 67f 70f
10:20pm 0.7ft  -  9 11 mph 1018mb 67f 70f
10:10pm 0.7ft  -  7 11 mph 1017.9mb 67f 70f
10:00pm 0.7ft  -  4 7 mph 1017.8mb 67f 69f
9:50pm 1ft 2s 4 4 mph 1017.7mb 67f 69f
9:40pm 1ft 2s 4 7 mph 1017.7mb 67f 69f
9:30pm 0.7ft  -  7 9 mph 1017.7mb 67f 69f
9:20pm 1ft 2s 7 9 mph 1017.6mb 67f 69f
9:10pm 1ft 2s 7 7 mph 1017.7mb 67f 69f
9:00pm 1ft 2s 7 9 mph 1017.6mb 67f 69f
8:50pm 1ft 2s 7 9 mph 1017.6mb 67f 69f
8:40pm 1ft 2s 7 9 mph 1017.5mb 67f 69f
8:30pm 1.3ft 2s 7 9 mph 1017.2mb 67f 69f
8:20pm 1.3ft 2s 7 9 mph 1017.1mb 67f 70f
8:10pm 1.3ft 2s 7 9 mph 1016.9mb 67f 70f
8:00pm 1.3ft 2s 7 9 mph 1016.7mb 67f 71f